[Iaude] MPEC F73: 2024 FK2 [a=2.27,e=0.53,i=19.9,H=21.7]

mpec at cfa.harvard.edu mpec at cfa.harvard.edu
Fri Mar 22 07:54:53 EDT 2024


M.P.E.C. 2024-F73                                Issued 2024 March 22, 11:53 UT

     The Minor Planet Electronic Circulars contain information on unusual
         minor planets, routine data on comets and natural satellites,
         and occasional editorial announcements.  They are published
    on behalf of Division F of the International Astronomical Union by the
          Minor Planet Center, Smithsonian Astrophysical Observatory,
                          Cambridge, MA 02138, U.S.A.
			  
             Prepared using the Tamkin Foundation Computer Network

                              MPC at CFA.HARVARD.EDU
            URL https://www.minorplanetcenter.net/    ISSN 1523-6714

                                    2024 FK2                                    


Observations:
     K24F02K* C2024 03 18.50366316 08 25.908+55 40 25.82         21.08GVEF073V00
     K24F02K  C2024 03 18.50927216 08 27.028+55 40 18.73         21.28GVEF073V00
     K24F02K  C2024 03 18.51488516 08 28.198+55 40 11.50         20.67GVEF073V00
     K24F02K  C2024 03 18.52049116 08 29.288+55 40 04.01         21.36GVEF073V00
     K24F02K mC2024 03 18.52511816 08 30.250+55 39 58.00         20.89GVEF073V00
     K24F02K mC2024 03 18.52608716 08 30.430+55 39 56.60         21.21GVEF073V00
     K24F02K mC2024 03 18.52705716 08 30.650+55 39 55.20               VEF073V00
     K24F02K KC2024 03 19.38099716 11 39.46 +55 20 58.7          21.1 GVEF073H21
     K24F02K KC2024 03 19.38379316 11 40.01 +55 20 55.1          20.8 GVEF073H21
     K24F02K KC2024 03 19.38658916 11 40.57 +55 20 51.3                VEF073H21
     K24F02K KC2024 03 19.38938516 11 41.11 +55 20 47.8          21.0 GVEF073H21
     K24F02K KC2024 03 19.39218116 11 41.68 +55 20 44.1          21.2 GVEF073H21
     K24F02K KC2024 03 19.44538316 11 53.581+55 19 33.82         21.00GVEF073I52
     K24F02K KC2024 03 19.44770116 11 54.035+55 19 30.40         20.96GVEF073I52
     K24F02K KC2024 03 19.45006016 11 54.521+55 19 27.30         20.86GVEF073I52
     K24F02K KC2024 03 19.45242116 11 55.028+55 19 24.28         20.81GVEF073I52
     K24F02K KC2024 03 20.35511516 15 12.47 +54 57 54.9          21.3 GVEF073H21
     K24F02K KC2024 03 20.35791216 15 13.08 +54 57 50.6          21.3 GVEF073H21
     K24F02K KC2024 03 20.36070916 15 13.63 +54 57 46.6          21.3 GVEF073H21
     K24F02K KC2024 03 20.36350416 15 14.22 +54 57 42.7          20.9 GVEF073H21
     K24F02K  C2024 03 22.42253116 22 40.135+54 03 20.80         22.0 GVEF073H01
     K24F02K  C2024 03 22.42743316 22 41.112+54 03 12.55         21.1 GVEF073H01
     K24F02K  C2024 03 22.43750416 22 43.077+54 02 55.96         21.2 GVEF073H01
     K24F02K  C2024 03 22.44289616 22 44.128+54 02 46.82         20.9 GVEF073H01

Observer details:
H01 Magdalena Ridge Observatory, Socorro.  Observers W. H. Ryan, E. V. Ryan.
    Measurers W. H. Ryan, W. H. Ryan, E. V. Ryan.  2.4-m f/8.9 Ritchey-
    Chretien + CCD.
H21 Astronomical Research Observatory, Westfield.  Observer R. Holmes.
    Measurers T. Linder, R. Holmes, L. Horn, R. Holmes.  0.76-m f/3.0
    astrograph + CCD.
I52 Steward Observatory, Mt. Lemmon Station.  Observer R. A. Kowalski.
    Measurers T. Beuden, V. F. Carvajal, D. Fay, J. B. Fazekas, D. C. Fuls, A.
    R. Gibbs, A. D. Grauer, H. Groeller, J. K. Hogan, R. A. Kowalski, S. M.
    Larson, G. J. Leonard, D. Rankin, R. L. Seaman, F. C. Shelly, K. W.
    Wierzchos, R. A. Kowalski.  1.0-m prime focus + CCD.
V00 Kitt Peak-Bok.  Observers V. F. Carvajal, H. Groeller.  Measurers M. J.
    Brucker, C. E. Woodward, T. Beuden, V. F. Carvajal, D. Fay, J. B. Fazekas,
    D. C. Fuls, A. R. Gibbs, H. Groeller, J. K. Hogan, R. A. Kowalski, S. M.
    Larson, C. Lejoly, G. J. Leonard, R. A. Mastaler, R. S. McMillan, D.
    Rankin, R. L. Seaman, F. C. Shelly, K. W. Wierzchos, V. F. Carvajal, H.
    Groeller.  2.25-m reflector + 4x4K mosaic CCD.

Orbital elements:
2024 FK2                                                 Earth MOID = 0.0643 AU
Epoch 2024 Mar. 31.0 TT = JDT 2460400.5                 Veres                   
M 355.90409              (2000.0)            P               Q                  
n   0.28779229     Peri.  162.02310     -0.87352792     +0.42181729             
a   2.2720433      Node    45.51711     -0.47787719     -0.64814346             
e   0.5346807      Incl.   19.90781     -0.09264106     -0.63401910             
P   3.42           H   21.73          G   0.15           U   9                  
Residuals in seconds of arc
240318 V00  0.4-  0.3+    240319 H21  0.1+  0.3+    240320 H21  0.3-  0.2+
240318 V00  0.4-  0.5+    240319 H21  0.1+  0.2+    240320 H21  0.1+  0.1-
240318 V00  0.1-  0.6+    240319 H21  0.1-  0.5+    240320 H21  0.1-  0.1-
240318 V00  0.4-  0.4+    240319 H21  0.1-  0.5+    240320 H21  0.2+  0.1-
240318 V00  0.1-  0.4+    240319 I52  0.0   0.1+    240322 H01  0.0   0.1+
240318 V00  0.2-  0.3+    240319 I52  0.1-  0.2-    240322 H01  0.1+  0.1-
240318 V00  0.0   0.2+    240319 I52  0.1+  0.2-    240322 H01  0.0   0.1+
240319 H21  0.3+  0.2+    240319 I52  0.4+  0.0     240322 H01  0.1-  0.0

Ephemeris:
2024 FK2                 a,e,i = 2.27, 0.53, 20                  q = 1.0572
Date    TT    R. A. (2000) Decl.     Delta      r    Elong.  Phase     V
2024 02 21    14 24 41.6 +58 17 24   0.4410  1.2327   113.5    47.4    22.2
...
2024 03 07    15 24 49.8 +58 14 41   0.3548  1.1534   108.2    54.8    21.8
...
2024 03 15    15 55 27.8 +56 45 37   0.3089  1.1189   105.8    58.8    21.5
...
2024 03 21    16 17 31.3 +54 41 39   0.2741  1.0975   104.6    61.5    21.3
2024 03 22    16 21 07.7 +54 15 02   0.2683  1.0944   104.4    61.9    21.3
2024 03 23    16 24 43.1 +53 46 28   0.2624  1.0913   104.2    62.3    21.2
...
2024 03 29    16 45 55.2 +50 07 21   0.2276  1.0756   103.8    64.3    21.0
...
2024 04 06    17 13 26.9 +42 17 21   0.1825  1.0620   104.8    65.7    20.5
...
2024 04 21    18 03 20.7 +09 39 21   0.1192  1.0605   114.8    59.3    19.4

M. P. C. Staff               (C) Copyright 2024 MPC           M.P.E.C. 2024-F73





More information about the Iaude mailing list